Terug naar catalogus

STARLINK-30586

ActiefCommunicatieVLEO
NORAD 58084·PAYLOAD·🇺🇸 United States

Gelanceerd Oct 18, 2023 vanaf Cape Canaveral Space Force Station

Loading…

Volgende Passages (komende 24 uur)

TLE

VersSource: CelesTrak SupGP

Epoch: Sep 14, 2026, 21:33 UTC

1 58084C 23160K   26257.89840278  .00013211  00000+0  47863-3 0  2570
2 58084  42.9997  92.7561 0001330 272.4924  53.1836 15.27563262    10

Volg STARLINK-30586 in realtime met AllMySat

Download on the App Store